When you browse on this site, cookies collect data to enhance your experience and personalize the content and advertising you see.
Visit our Privacy Policy to learn more. By continuing to use the site, you agree to this use of cookies and data.
  • In Hungary
  • List of Countries
  • For 7 days
  • Water Temperature
  • Weather Map
  • News
  • Weather Widgets
  • user-avatar
    Login

    Hourly Weather Vyugovo

    Today, 18 September, Wednesday

    Time Temperature Precipitation Wind Pressure Humidity
    00:00 +7°C° 0.1 mm 3 mps 733 mmHg 90%
    01:00 +7°C° 0.1 mm 3 mps 733 mmHg 92%
    02:00 +7°C° 0.1 mm 2 mps 733 mmHg 94%
    03:00 +7°C° 0.3 mm 2 mps 733 mmHg 95%
    04:00 +7°C° 0.3 mm 2 mps 733 mmHg 95%
    05:00 +7°C° 0.3 mm 2 mps 734 mmHg 95%
    06:00 +7°C° 0.3 mm 2 mps 734 mmHg 94%
    07:00 +7°C° 0.3 mm 2 mps 734 mmHg 94%
    08:00 +7°C° 0.3 mm 2 mps 734 mmHg 93%
    09:00 +8°C° 0.1 mm 2 mps 734 mmHg 89%
    10:00 +9°C° 0.1 mm 2 mps 734 mmHg 85%
    11:00 +11°C° 0.1 mm 1 mps 734 mmHg 81%
    12:00 +10°C° 0.4 mm 2 mps 734 mmHg 79%
    13:00 +12°C° 0.4 mm 2 mps 734 mmHg 76%
    14:00 +12°C° 0.4 mm 2 mps 734 mmHg 74%
    15:00 +10°C° 0.4 mm 2 mps 734 mmHg 78%
    16:00 +10°C° 0.4 mm 2 mps 734 mmHg 83%
    17:00 +9°C° 0.4 mm 2 mps 734 mmHg 87%
    18:00 +8°C° 0 mm 2 mps 735 mmHg 90%
    19:00 +7°C° 0 mm 2 mps 735 mmHg 92%
    20:00 +6°C° 0 mm 2 mps 735 mmHg 95%
    21:00 +5°C° 0 mm 3 mps 735 mmHg 96%
    22:00 +4°C° 0 mm 3 mps 736 mmHg 96%
    23:00 +4°C° 0 mm 3 mps 736 mmHg 97%

    Tomorrow, 19 September, Thursday

    Time Temperature Precipitation Wind Pressure Humidity
    00:00 +4°C° 0 mm 3 mps 737 mmHg 96%
    01:00 +5°C° 0 mm 3 mps 737 mmHg 95%
    02:00 +5°C° 0 mm 3 mps 738 mmHg 94%
    03:00 +5°C° 0 mm 3 mps 738 mmHg 93%
    04:00 +5°C° 0 mm 3 mps 739 mmHg 93%
    05:00 +5°C° 0 mm 3 mps 739 mmHg 92%
    06:00 +5°C° 0 mm 4 mps 740 mmHg 90%
    07:00 +5°C° 0 mm 4 mps 740 mmHg 87%
    08:00 +5°C° 0 mm 4 mps 741 mmHg 85%
    09:00 +5°C° 0 mm 4 mps 741 mmHg 79%
    10:00 +6°C° 0 mm 4 mps 742 mmHg 74%
    11:00 +6°C° 0 mm 4 mps 742 mmHg 68%
    12:00 +7°C° 0 mm 3 mps 743 mmHg 65%
    13:00 +7°C° 0 mm 3 mps 743 mmHg 62%
    14:00 +7°C° 0 mm 3 mps 744 mmHg 59%
    15:00 +7°C° 0 mm 2 mps 744 mmHg 61%
    16:00 +7°C° 0 mm 2 mps 744 mmHg 63%
    17:00 +7°C° 0 mm 1 mps 744 mmHg 66%
    18:00 +6°C° 0 mm 1 mps 744 mmHg 69%
    19:00 +5°C° 0 mm 1 mps 745 mmHg 73%
    20:00 +4°C° 0 mm 1 mps 745 mmHg 76%
    21:00 +4°C° 0 mm 1 mps 745 mmHg 79%
    22:00 +3°C° 0 mm 1 mps 745 mmHg 81%
    23:00 +3°C° 0 mm 1 mps 745 mmHg 83%

    Day after tomorrow, 20 September, Friday

    Time Temperature Precipitation Wind Pressure Humidity
    00:00 +3°C° 0 mm 1 mps 745 mmHg 84%
    01:00 +3°C° 0 mm 1 mps 746 mmHg 85%
    02:00 +3°C° 0 mm 1 mps 746 mmHg 86%
    03:00 +2°C° 0 mm 1 mps 746 mmHg 88%
    04:00 +2°C° 0 mm 1 mps 746 mmHg 89%
    05:00 +2°C° 0 mm 1 mps 746 mmHg 90%
    06:00 +3°C° 0 mm 1 mps 746 mmHg 85%
    07:00 +5°C° 0 mm 1 mps 746 mmHg 80%
    08:00 +6°C° 0 mm 1 mps 746 mmHg 74%
    09:00 +7°C° 0.1 mm 1 mps 746 mmHg 70%
    10:00 +8°C° 0.1 mm 1 mps 746 mmHg 65%
    11:00 +10°C° 0.1 mm 1 mps 746 mmHg 60%
    12:00 +10°C° 0.2 mm 1 mps 747 mmHg 60%
    13:00 +9°C° 0.2 mm 2 mps 747 mmHg 59%
    14:00 +9°C° 0.2 mm 2 mps 747 mmHg 59%
    15:00 +8°C° 0.2 mm 2 mps 747 mmHg 65%
    16:00 +7°C° 0.2 mm 2 mps 747 mmHg 72%
    17:00 +7°C° 0.2 mm 1 mps 747 mmHg 78%
    18:00 +6°C° 0 mm 1 mps 747 mmHg 80%
    19:00 +5°C° 0 mm 1 mps 748 mmHg 83%
    20:00 +3°C° 0 mm 1 mps 748 mmHg 86%
    21:00 +2°C° 0 mm 2 mps 748 mmHg 88%
    22:00 +2°C° 0 mm 2 mps 749 mmHg 89%
    23:00 +2°C° 0 mm 2 mps 749 mmHg 91%

    21 September, Saturday

    Time Temperature Precipitation Wind Pressure Humidity
    00:00 +1°C° 0 mm 2 mps 749 mmHg 92%
    01:00 +1°C° 0 mm 2 mps 749 mmHg 93%
    02:00 -1°C° 0 mm 2 mps 749 mmHg 93%
    03:00 -1°C° 0 mm 2 mps 749 mmHg 93%
    04:00 -2°C° 0 mm 2 mps 749 mmHg 92%
    05:00 -2°C° 0 mm 2 mps 749 mmHg 91%
    06:00 -1°C° 0 mm 2 mps 750 mmHg 87%
    07:00 +2°C° 0 mm 2 mps 750 mmHg 83%
    08:00 +3°C° 0 mm 2 mps 750 mmHg 79%
    09:00 +4°C° 0 mm 2 mps 750 mmHg 73%
    10:00 +5°C° 0 mm 3 mps 749 mmHg 66%
    11:00 +7°C° 0 mm 3 mps 749 mmHg 60%
    12:00 +8°C° 0 mm 3 mps 749 mmHg 58%
    13:00 +7°C° 0 mm 4 mps 749 mmHg 56%
    14:00 +7°C° 0 mm 4 mps 748 mmHg 54%
    15:00 +7°C° 0 mm 3 mps 748 mmHg 59%
    16:00 +5°C° 0 mm 3 mps 747 mmHg 63%
    17:00 +5°C° 0 mm 3 mps 747 mmHg 67%
    18:00 +4°C° 0 mm 3 mps 746 mmHg 69%
    19:00 +4°C° 0 mm 3 mps 745 mmHg 70%
    20:00 +3°C° 0 mm 3 mps 744 mmHg 72%
    21:00 +3°C° 0.4 mm 4 mps 743 mmHg 79%
    22:00 +2°C° 0.4 mm 5 mps 742 mmHg 86%
    23:00 +2°C° 0.4 mm 5 mps 740 mmHg 94%

    22 September, Sunday

    Time Temperature Precipitation Wind Pressure Humidity
    00:00 +2°C° 1.2 mm 5 mps 739 mmHg 94%
    01:00 +3°C° 1.2 mm 5 mps 738 mmHg 95%
    02:00 +3°C° 1.2 mm 5 mps 736 mmHg 96%
    03:00 +5°C° 0.9 mm 6 mps 735 mmHg 95%
    04:00 +7°C° 0.9 mm 6 mps 734 mmHg 94%
    05:00 +8°C° 0.9 mm 6 mps 733 mmHg 93%
    06:00 +6°C° 0.1 mm 7 mps 733 mmHg 87%
    07:00 +4°C° 0.1 mm 8 mps 733 mmHg 81%
    08:00 +2°C° 0.1 mm 9 mps 733 mmHg 75%
    09:00 +2°C° 0.1 mm 10 mps 734 mmHg 77%
    10:00 +2°C° 0.1 mm 11 mps 734 mmHg 78%
    11:00 +2°C° 0.1 mm 11 mps 734 mmHg 79%
    12:00 +2°C° 0.1 mm 12 mps 734 mmHg 79%
    13:00 +2°C° 0.1 mm 12 mps 735 mmHg 79%
    14:00 +2°C° 0.1 mm 12 mps 735 mmHg 79%
    15:00 +1°C° 0.2 mm 11 mps 737 mmHg 82%
    16:00 +1°C° 0.2 mm 11 mps 738 mmHg 85%
    17:00 0°C° 0.2 mm 10 mps 739 mmHg 87%
    18:00 0°C° 0.1 mm 9 mps 740 mmHg 86%
    19:00 0°C° 0.1 mm 8 mps 742 mmHg 85%
    20:00 0°C° 0.1 mm 8 mps 743 mmHg 84%
    21:00 0°C° 0 mm 7 mps 744 mmHg 85%
    22:00 +1°C° 0 mm 6 mps 745 mmHg 87%
    23:00 +1°C° 0 mm 5 mps 745 mmHg 88%

    23 September, Monday

    Time Temperature Precipitation Wind Pressure Humidity
    00:00 0°C° 0 mm 5 mps 746 mmHg 90%
    01:00 0°C° 0 mm 4 mps 746 mmHg 93%
    02:00 -1°C° 0 mm 4 mps 747 mmHg 95%
    03:00 -1°C° 0 mm 4 mps 748 mmHg 94%
    04:00 -1°C° 0 mm 4 mps 748 mmHg 93%
    05:00 -1°C° 0 mm 4 mps 748 mmHg 91%
    06:00 0°C° 0 mm 4 mps 749 mmHg 90%
    07:00 0°C° 0 mm 4 mps 749 mmHg 89%
    08:00 +1°C° 0 mm 3 mps 750 mmHg 87%
    09:00 +1°C° 0 mm 3 mps 750 mmHg 84%
    10:00 +2°C° 0 mm 3 mps 750 mmHg 80%
    11:00 +3°C° 0 mm 3 mps 750 mmHg 77%
    12:00 +3°C° 0 mm 3 mps 750 mmHg 74%
    13:00 +5°C° 0 mm 2 mps 750 mmHg 72%
    14:00 +5°C° 0 mm 2 mps 750 mmHg 69%
    15:00 +5°C° 0 mm 2 mps 750 mmHg 71%
    16:00 +5°C° 0 mm 2 mps 750 mmHg 73%
    17:00 +5°C° 0 mm 1 mps 750 mmHg 75%
    18:00 +4°C° 0 mm 1 mps 750 mmHg 79%
    19:00 +3°C° 0 mm 1 mps 750 mmHg 83%
    20:00 0°C° 0 mm 0 mps 751 mmHg 86%
    21:00 0°C° 0 mm 0 mps 751 mmHg 87%
    22:00 +1°C° 0 mm 1 mps 751 mmHg 88%
    23:00 +1°C° 0 mm 1 mps 751 mmHg 89%
    Show more